Location: Hochstatterhof
(48.7256°N, 10.3487°E)
Time: 03:04:23
(UTC+00:00)

Cosmos 1655 Rocket - Pass Details

Date: 26 September 2023
Orbit: 969 x 1006 km, 83.0° (Epoch: 04 December)

Event Time Altitude Azimuth Distance (km) Brightness Sun altitude
Exits shadow 02:45:12 - 173° (S) 2,915 6.3 -23.9°
Reaches altitude 10° 02:45:36 10° 173° (S) 2,771 6.2 -23.8°
Maximum altitude 02:51:52 63° 93° (E) 1,115 4.4 -22.9°
Drops below altitude 10° 02:58:12 10° 15° (NNE) 2,794 6.9 -21.9°
Sets 03:00:46 0° 12° (NNE) 3,747 7.6 -21.6°
